#timestamp,LO_Frequency,Hit,StdDev 
1661004015.5,286047002.8,P
1661004035.3,286047002.4,P
1661004055.2,286047002.4,P
1661004075.0,286047000.4,N
1661004075.9,286047000.4,N
1661004095.8,286047000.2,N
1661004115.6,286047002.1,N
1661004135.4,286047002.3,N
1661004155.3,286047000.1,N
1661004175.1,286047000.1,N
1661004195.8,286047002.4,N
1661004215.7,286047001.6,N
1661004235.5,286047002.5,N
1661004255.4,286047002.3,N
1661004275.2,286047002.2,N
1661004295.0,286047000.2,N
1661004295.9,286047000.2,N
1661004315.8,286047002.3,N
1661004335.6,286047002.6,N
1661004355.4,286047000.5,N
1661004375.3,286047002.2,N
1661004395.1,286047000.3,N
1661004415.9,286047000.4,N
1661004435.7,286047000.4,N
1661004455.5,286047000.0,N
1661004475.4,286047000.7,N
1661004495.2,286047000.5,N
1661004515.0,286047000.4,N
1661004515.9,286047000.4,N
1661004535.8,286047002.6,N
1661004555.6,286047000.7,N
1661004575.5,286047000.9,N
1661004595.3,286047000.5,N
1661004615.1,286046999.7,N
1661004635.6,286047000.2,N
1661004655.5,286047000.5,N
1661004675.3,286047002.4,N
1661004695.2,286046999.8,N
1661004715.9,286046999.8,N
1661004735.7,286046999.7,N
1661004755.6,286047002.7,N
1661004775.4,286047000.7,N
1661004795.2,286046998.2,N
1661004815.1,286047000.4,N
1661004816.0,286047000.4,N
1661004835.8,286047000.8,N
1661004855.7,286047000.9,N
1661004875.5,286046999.9,N
1661004895.3,286047000.0,N
1661004915.2,286047000.1,N
1661004935.0,286047002.8,Y
1661004935.9,286047002.8,P
1661004955.8,286047000.2,N
1661004975.6,286046999.9,N
1661004995.4,286046999.9,N
1661005015.3,286046999.8,N
1661005035.1,286046999.9,N
1661005055.9,286046999.9,N
1661005075.7,286047000.0,N
1661005095.5,286047000.4,N
1661005115.4,286046999.9,N
1661005135.2,286047000.7,N
1661005155.1,286047000.3,N
1661005156.0,286047000.3,N
1661005175.8,286046999.9,N
1661005195.6,286047002.4,Y
1661005215.5,286047002.0,P
1661005235.3,286047001.3,N
1661005255.2,286047002.7,P
1661005275.9,286047000.2,N
1661005295.7,286047000.3,N
1661005315.6,286047000.5,N
1661005335.4,286047000.8,N
1661005355.2,286047001.0,N
1661005375.1,286047000.7,N
1661005376.0,286047000.7,N
1661005395.8,286047001.1,N
1661005415.7,286047000.7,N
1661005435.5,286047000.8,N
1661005455.3,286046999.3,N
1661005475.2,286046999.1,N
1661005495.0,286046999.1,N
1661005495.9,286046999.1,N
1661005515.7,286046998.4,N
1661005535.6,286046998.5,N
1661005555.4,286046998.4,N
1661005575.3,286046999.4,N
1661005595.1,286046999.4,N
1661005596.0,286046999.4,N
1661005615.8,286046998.1,N
1661005635.7,286046998.3,N
1661005655.5,286046999.0,N
1661005675.3,286047001.1,N
1661005695.2,286046999.0,N
1661005715.0,286046999.2,N
1661005715.9,286046999.2,N
1661005735.8,286046998.7,N
1661005755.6,286046999.6,N
1661005775.4,286046996.6,Y
1661005795.3,286046999.2,P
1661005815.1,286046999.5,N
1661005835.9,286046996.7,P
1661005855.7,286046999.1,N
1661005875.5,286046999.4,N
1661005895.4,286046996.5,Y
1661005915.2,286046998.2,P
1661005935.0,286046999.1,N
1661005935.9,286046999.1,N
1661005955.8,286046996.5,Y
1661005975.6,286046999.1,P
1661005995.5,286046998.3,P
1661006015.3,286046999.3,N
1661006035.1,286047000.8,N
1661006055.9,286046998.7,N
1661006075.7,286046998.7,N
1661006095.5,286046998.9,N
1661006115.4,286046999.2,N
1661006135.2,286046999.3,N
1661006155.1,286046996.6,Y
1661006156.0,286046996.6,P
1661006175.8,286046999.2,N
1661006195.6,286046998.5,N
1661006215.5,286046996.5,Y
1661006235.3,286046998.5,P
1661006255.2,286046999.0,P
1661006275.9,286046998.3,P
1661006295.7,286046999.1,Y
1661006315.6,286046998.1,P
1661006335.4,286046998.2,P
1661006355.2,286046998.3,P
1661006375.1,286047000.8,Y
1661006376.0,286047000.8,P
1661006395.8,286047002.1,N
1661006415.7,286047000.0,N
1661006435.5,286047000.2,N
1661006455.3,286047000.0,N
1661006475.2,286046999.7,N
1661006495.0,286047000.0,N
1661006495.9,286047000.0,N
1661006515.8,286046999.9,N
1661006535.6,286047000.3,N
1661006555.4,286047002.4,N
1661006575.3,286047002.4,N
1661006595.1,286047002.6,N
1661006615.8,286046999.8,N
1661006635.7,286047000.2,N
1661006655.5,286047000.9,N
1661006675.4,286047001.2,N
1661006695.2,286047000.9,N
1661006715.0,286047000.9,N
1661006715.9,286047000.9,N
1661006735.8,286047000.7,N
1661006755.6,286046998.2,N
1661006775.4,286047000.8,N
1661006795.3,286047000.7,N
1661006815.1,286046998.7,N
1661006835.9,286047000.7,N
1661006855.7,286047001.0,N
1661006875.5,286046998.6,N
1661006895.4,286046998.8,N
1661006915.2,286046998.7,N
1661006935.0,286046998.7,N
1661006935.9,286046998.7,N
1661006955.8,286046999.1,N
1661006975.6,286046999.4,N
1661006995.5,286046999.4,N
1661007015.3,286046997.2,N
1661007035.1,286046997.0,N
1661007055.9,286046997.4,N
1661007075.7,286046997.8,N
1661007095.5,286046996.8,N
1661007115.4,286046996.5,N
1661007135.2,286046999.5,N
1661007155.1,286046999.1,N
1661007156.0,286046999.1,N
1661007175.8,286046998.9,N
1661007195.6,286046998.8,N
1661007215.5,286046998.7,N
1661007235.3,286046998.8,N
1661007255.1,286046999.1,N
1661007275.9,286046996.9,N
1661007295.7,286046996.5,N
1661007315.6,286046996.9,N
1661007335.4,286046996.5,N
1661007355.2,286046996.5,N
1661007375.1,286046996.8,N
1661007376.0,286046996.8,N
1661007395.8,286046999.1,N
1661007415.7,286046996.7,Y
1661007435.5,286046998.5,P
1661007455.3,286047000.8,P
1661007475.2,286047000.8,N
1661007495.0,286046998.5,N
1661007495.9,286046998.5,N
1661007515.7,286047000.7,N
1661007535.6,286047002.2,N
1661007555.4,286047003.2,N
1661007575.3,286047003.3,N
1661007595.1,286047005.6,N
1661007596.0,286047005.6,N
